Tracking 22454 objects as of 5-Mar-2021
HD Live streaming from Space Station
objects crossing your sky now

FREGAT DEB

Track FREGAT DEB now!
10-day predictions


NORAD ID: 46616
Int'l Code: 2011-037MG
Perigee: 994.5 km
Apogee: 4,221.3 km
Inclination: 52.3 °
Period: 141.1 minutes
Semi major axis: 8978 km
RCS: Unknown
Launch date: July 18, 2011
Source: Commonwealth of Independent States (former USSR) (CIS)
Launch site: TYURATAM MISSILE AND SPACE COMPLEX (TTMTR)

Note: This is SATELLITE DEBRIS
aabbcc
Your satellite tracking list
Your tracking list is empty




NASA's NSSDC Master Catalog

Two Line Element Set (TLE):
1 46616U 11037MG  20355.08391931  .00002120  00000-0  15305-1 0  9994
2 46616  52.3385   6.9951 1796871 305.8886  38.7797 10.20393931  8288
Source of the keplerian elements: AFSPC